(162714) = 2000 UN96

Discovered at Socorro on 2000-10-25 by LINEAR.

Orbit

Orbit type: Main Belt

Note: WebGL enabled browser required.

epoch2024-03-31.0
epoch JD2460400.5
perihelion date2022-01-29.87090
perihelion JD2459609.37090
argument of perihelion (°)23.32086
ascending node (°)345.83315
inclination (°)4.74522
eccentricity0.0401298
perihelion distance (AU)2.2540944
Tisserand w.r.t. Jupiter3.6
ΔV w.r.t. Earth (km/sec)9.4
semimajor axis (AU)2.3483324
mean anomaly (°)216.67652
mean daily motion (°/day)0.27388260
aphelion distance (AU)2.443
period (years)3.6
P-vector [x]0.98693216
P-vector [y]0.13172726
P-vector [z]0.09280543
Q-vector [x]-0.15985929
Q-vector [y]0.87277943
Q-vector [z]0.46119528
absolute magnitude16.11
phase slope0.15
uncertainty0
referenceMPEC 2024-E179
observations used1042
oppositions16
arc length (days)9710
first opposition used1996
last opposition used2023
residual rms (arc-secs)0.71
perturbers coarse indicatorM-v
perturbers precise indicator003Ek
first observation date used1996-09-11.0
last observation date used2023-04-13.0
computer nameMPCLINUX
JD of orbit computation2456966.852777
perihelion JD uncertainty (days)1.4675E-04
argument of perihelion uncertainty (°)5.6649E-05
ascending node uncertainty (°)3.9129E-05
inclination uncertainty (°)5.6384E-06
eccentricity uncertainty 6.0775E-08
perihelion distance uncertainty (AU)1.4798E-07
Minimum Orbit Intersection Distances (in AU)
for orbit epoch: 2460400.5, reference: E2024-GH2
Mercury1.86951
Venus1.53175
Earth1.25244
Mars0.74537
Jupiter2.70408
Saturn6.71322
Uranus16.0049
Neptune27.5704

Observations

1065 total observations over interval: 1996 09 11.32445 – 2023 04 13.160000
These data are available for download (format description).

Date (UT) J2000 RA J2000 Dec Magn Location Ref
1996 09 11.32445 23 11 14.45 -04 57 53.6 18.4 V 691 – Steward Observatory, Kitt Peak-Spacewatch MPS 54799
1996 09 11.34585 23 11 13.11 -04 57 57.9   691 – Steward Observatory, Kitt Peak-Spacewatch MPS 54799
1996 09 11.36754 23 11 11.77 -04 58 02.3   691 – Steward Observatory, Kitt Peak-Spacewatch MPS 54799
2000 10 25.35751 03 15 19.60 +25 18 02.2 18.9   704 – Lincoln Laboratory ETS, New Mexico MPS 21665
2000 10 25.37135 03 15 18.74 +25 18 02.2 20.1   704 – Lincoln Laboratory ETS, New Mexico MPS 21665
2000 10 25.38985 03 15 17.62 +25 17 59.1 19.9   704 – Lincoln Laboratory ETS, New Mexico MPS 21665
2000 10 25.40410 03 15 16.80 +25 17 59.8 19.3   704 – Lincoln Laboratory ETS, New Mexico MPS 21665
2000 10 25.41826 03 15 15.99 +25 17 58.8 19.4   704 – Lincoln Laboratory ETS, New Mexico MPS 21665
2000 11 03.27475 03 06 09.12 +25 03 52.1 18.9   704 – Lincoln Laboratory ETS, New Mexico MPS 21665
2000 11 03.28836 03 06 08.17 +25 03 49.8 19.2   704 – Lincoln Laboratory ETS, New Mexico MPS 21665
2000 11 03.30199 03 06 07.28 +25 03 48.0 19.2   704 – Lincoln Laboratory ETS, New Mexico MPS 21665
2000 11 03.32921 03 06 05.36 +25 03 44.9 19.6   704 – Lincoln Laboratory ETS, New Mexico MPS 21665
2000 11 05.31411 03 03 54.76 +24 58 48.1 18.7   704 – Lincoln Laboratory ETS, New Mexico MPS 22699
2000 11 05.32785 03 03 53.82 +24 58 45.2 18.9   704 – Lincoln Laboratory ETS, New Mexico MPS 22699
2000 11 05.35544 03 03 51.94 +24 58 40.6 19.0   704 – Lincoln Laboratory ETS, New Mexico MPS 22699
2000 11 05.37194 03 03 50.83 +24 58 39.2 18.9   704 – Lincoln Laboratory ETS, New Mexico MPS 22699
2000 11 20.28805 02 47 40.47 +24 05 29.6 18.8   704 – Lincoln Laboratory ETS, New Mexico MPS 22699
2000 11 20.30528 02 47 39.37 +24 05 24.8 19.3   704 – Lincoln Laboratory ETS, New Mexico MPS 22699
2000 11 20.32027 02 47 38.43 +24 05 21.3 18.9   704 – Lincoln Laboratory ETS, New Mexico MPS 22699
2000 11 20.33529 02 47 37.53 +24 05 17.5 19.1   704 – Lincoln Laboratory ETS, New Mexico MPS 22699
2000 11 20.35032 02 47 36.59 +24 05 13.9 19.1   704 – Lincoln Laboratory ETS, New Mexico MPS 22699
2000 11 29.22450 02 39 32.19 +23 26 27.8 19.0   704 – Lincoln Laboratory ETS, New Mexico MPS 22699
2000 11 29.24047 02 39 31.35 +23 26 23.0 19.0   704 – Lincoln Laboratory ETS, New Mexico MPS 22699
2000 11 29.25541 02 39 30.59 +23 26 19.4 18.9   704 – Lincoln Laboratory ETS, New Mexico MPS 22699
2000 11 29.27205 02 39 29.81 +23 26 15.1 19.2   704 – Lincoln Laboratory ETS, New Mexico MPS 22699
2000 11 29.28792 02 39 28.98 +23 26 10.3 19.1   704 – Lincoln Laboratory ETS, New Mexico MPS 22699
2002 02 11.45345 12 36 59.42 -04 54 05.5 19.5   704 – Lincoln Laboratory ETS, New Mexico MPS 54799
2002 02 11.47207 12 36 59.17 -04 54 07.4 20.1   704 – Lincoln Laboratory ETS, New Mexico MPS 54799
2002 02 11.48743 12 36 58.91 -04 54 07.3 19.7   704 – Lincoln Laboratory ETS, New Mexico MPS 54799
2002 02 11.50276 12 36 58.69 -04 54 08.2 19.2   704 – Lincoln Laboratory ETS, New Mexico MPS 54799
2002 03 13.33498 12 18 25.26 -04 09 26.0 19.2   704 – Lincoln Laboratory ETS, New Mexico MPS 54799
2002 03 13.35558 12 18 23.98 -04 09 20.3 19.0   704 – Lincoln Laboratory ETS, New Mexico MPS 54799
2002 03 13.37237 12 18 23.03 -04 09 16.8 19.2   704 – Lincoln Laboratory ETS, New Mexico MPS 54799
2002 03 13.38736 12 18 22.16 -04 09 14.0 19.0   704 – Lincoln Laboratory ETS, New Mexico MPS 54799
2002 03 13.40289 12 18 21.26 -04 09 10.6 19.2   704 – Lincoln Laboratory ETS, New Mexico MPS 54799
2002 03 13.50717 12 18 15.28 -04 08 48.2 19.2   644 – Palomar Mountain/NEAT MPS 54799
2002 03 13.51771 12 18 14.69 -04 08 45.9 19.4   644 – Palomar Mountain/NEAT MPS 54799
2002 03 13.52837 12 18 14.05 -04 08 43.4 19.3   644 – Palomar Mountain/NEAT MPS 54799
2002 03 15.31983 12 16 32.15 -04 02 09.5 18.9   704 – Lincoln Laboratory ETS, New Mexico MPS 54799
2002 03 15.33818 12 16 31.09 -04 02 04.6 19.0   704 – Lincoln Laboratory ETS, New Mexico MPS 54799
2002 03 15.35194 12 16 30.30 -04 02 02.3 19.4   704 – Lincoln Laboratory ETS, New Mexico MPS 54799
2002 03 15.36567 12 16 29.49 -04 01 58.6 18.9   704 – Lincoln Laboratory ETS, New Mexico MPS 54799
2002 03 15.37937 12 16 28.65 -04 01 56.0 19.1   704 – Lincoln Laboratory ETS, New Mexico MPS 54799
2002 03 16.46393 12 15 25.76 -03 57 47.5 19.9   608 – Haleakala-AMOS MPS 54799
2002 03 16.47478 12 15 25.12 -03 57 44.9 19.6   608 – Haleakala-AMOS MPS 54799
2002 03 16.48574 12 15 24.44 -03 57 42.0 20.0   608 – Haleakala-AMOS MPS 54799
2002 03 18.37476 12 13 33.48 -03 50 20.6 19.9   704 – Lincoln Laboratory ETS, New Mexico MPS 54799
2002 03 18.39083 12 13 32.48 -03 50 14.6 19.3   704 – Lincoln Laboratory ETS, New Mexico MPS 54799
2002 03 18.40860 12 13 31.38 -03 50 09.9 19.0   704 – Lincoln Laboratory ETS, New Mexico MPS 54799
2002 03 18.42752 12 13 30.33 -03 50 06.5 19.5   704 – Lincoln Laboratory ETS, New Mexico MPS 54799
2002 04 04.26376 11 57 00.21 -02 38 42.5 19.1   644 – Palomar Mountain/NEAT MPS 54799
2002 04 04.28480 11 56 59.00 -02 38 37.2 19.2   644 – Palomar Mountain/NEAT MPS 54799
2002 04 04.30702 11 56 57.74 -02 38 31.6 18.9   644 – Palomar Mountain/NEAT MPS 54799
2002 04 05.21379 11 56 08.31 -02 34 48.4 18.9 R 699 – Lowell Observatory-LONEOS MPS 54799
2002 04 05.23042 11 56 07.41 -02 34 43.4   699 – Lowell Observatory-LONEOS MPS 54799
2002 04 05.24710 11 56 06.43 -02 34 39.4   699 – Lowell Observatory-LONEOS MPS 54799
2002 04 05.26377 11 56 05.49 -02 34 34.5   699 – Lowell Observatory-LONEOS MPS 54799
2002 04 10.24563 11 51 47.63 -02 14 54.1 19.4   704 – Lincoln Laboratory ETS, New Mexico MPS 54799
2002 04 10.25738 11 51 47.05 -02 14 51.0 19.7   704 – Lincoln Laboratory ETS, New Mexico MPS 54799
2002 04 10.26905 11 51 46.41 -02 14 49.6 19.7   704 – Lincoln Laboratory ETS, New Mexico MPS 54799
2002 04 10.28073 11 51 45.80 -02 14 46.4 19.5   704 – Lincoln Laboratory ETS, New Mexico MPS 54799
2002 04 10.29240 11 51 45.22 -02 14 43.9 19.3   704 – Lincoln Laboratory ETS, New Mexico MPS 54799
2002 04 12.23288 11 50 12.61 -02 07 35.3 19.1   704 – Lincoln Laboratory ETS, New Mexico MPS 54799
2002 04 12.24685 11 50 11.88 -02 07 32.0 19.0   704 – Lincoln Laboratory ETS, New Mexico MPS 54799
2002 04 12.26106 11 50 11.21 -02 07 29.0 19.6   704 – Lincoln Laboratory ETS, New Mexico MPS 54799
2002 04 12.27503 11 50 10.52 -02 07 25.5 19.6   704 – Lincoln Laboratory ETS, New Mexico MPS 54799
2002 04 12.28900 11 50 09.85 -02 07 22.8 19.3   704 – Lincoln Laboratory ETS, New Mexico MPS 54799
2002 04 14.19897 11 48 43.61 -02 00 43.0 19.5   704 – Lincoln Laboratory ETS, New Mexico MPS 54799
2002 04 14.21332 11 48 42.95 -02 00 39.9 19.4   704 – Lincoln Laboratory ETS, New Mexico MPS 54799
2002 04 14.22733 11 48 42.31 -02 00 37.3 19.8   704 – Lincoln Laboratory ETS, New Mexico MPS 54799
2002 04 14.24122 11 48 41.63 -02 00 34.2 19.5   704 – Lincoln Laboratory ETS, New Mexico MPS 54799
2002 04 14.25511 11 48 40.99 -02 00 31.0 19.6   704 – Lincoln Laboratory ETS, New Mexico MPS 54799
2002 04 16.17971 11 47 19.25 -01 54 12.3 19.4   704 – Lincoln Laboratory ETS, New Mexico MPS 54799
2002 04 16.19365 11 47 18.60 -01 54 09.4 19.6   704 – Lincoln Laboratory ETS, New Mexico MPS 54799
2002 04 16.20290 11 47 18.23 -01 54 08.9 19.6   704 – Lincoln Laboratory ETS, New Mexico MPS 54799
2002 04 16.20762 11 47 18.03 -01 54 06.2 19.6   704 – Lincoln Laboratory ETS, New Mexico MPS 54799
2002 04 16.21703 11 47 17.55 -01 54 05.4 19.3   704 – Lincoln Laboratory ETS, New Mexico MPS 54799
2002 04 16.22160 11 47 17.39 -01 54 04.4 19.1   704 – Lincoln Laboratory ETS, New Mexico MPS 54799
2002 04 16.23193 11 47 17.00 -01 54 02.2 19.3   704 – Lincoln Laboratory ETS, New Mexico MPS 54799
2002 04 16.23556 11 47 16.80 -01 54 01.6 19.9   704 – Lincoln Laboratory ETS, New Mexico MPS 54799
2003 07 08.37705 21 50 06.60 -18 12 15.5 19.0   644 – Palomar Mountain/NEAT MPS 178230
2003 07 08.39829 21 50 06.06 -18 12 17.7 18.8   644 – Palomar Mountain/NEAT MPS 178230
2003 07 08.41942 21 50 05.55 -18 12 19.8 19.1   644 – Palomar Mountain/NEAT MPS 178230
2003 07 23.32080 21 41 14.74 -18 45 36.3 19.5 C 704 – Lincoln Laboratory ETS, New Mexico MPS 291356
2003 07 23.33108 21 41 14.26 -18 45 39.7 18.9 C 704 – Lincoln Laboratory ETS, New Mexico MPS 291356
